[[{"header":{"parameterUnit":"m.s-1","parameterCategory":1,"la1":30.2991,"la2":30.254,"lo1":-89.0895,"lo2":-89.0444,"dy":0.0017,"dx":0.0017,"nx":28,"ny":28,"refTime":"2024-03-12T03:00:00:Z","depth":0,"parameterNumber":2,"parameterNumberName":"U-component_of_WINDS"},"data":[0,0,0,0,0,0,0,0,0,0,0,0,0,0,0,0,0,0,0,0,0,0,0,0,0,0,0,0,0,0,0,0,0,0,0,0,0,0,0,0,0,0,0,0,0,0,0,0,0,0,0,0,0,0,0,0,0,0,-1.165,-1.165,0,-1.1631,-1.163,-1.163,-1.1589,-1.1588,-1.1587,-1.1587,-1.1568,-1.1568,-1.1568,0,0,0,0,0,0,0,0,0,0,0,0,0,-1.1652,-1.1653,-1.165,-1.165,-1.1649,-1.1631,-1.163,-1.163,-1.1589,-1.1588,-1.1587,-1.1586,-1.1568,-1.1568,-1.1568,0,0,0,0,0,0,0,0,0,0,0,0,0,-1.1644,-1.1653,-1.165,-1.1627,-1.1624,-1.1631,-1.163,-1.163,-1.1589,-1.1588,-1.1587,-1.1586,-1.1567,-1.1568,-1.1568,-1.1596,0,0,-1.1569,-1.157,0,0,0,0,0,0,0,0,-1.1645,-1.1644,-1.163,-1.1628,-1.1626,-1.1611,-1.1624,-1.1619,-1.159,-1.1603,-1.1587,-1.1585,-1.1583,-1.1582,-1.1581,-1.1595,-1.1594,-1.157,-1.157,-1.157,-1.157,0,0,0,0,0,0,0,-1.1645,-1.1645,-1.1642,-1.163,-1.1627,-1.1618,-1.1615,-1.1623,-1.16,-1.1601,-1.1598,-1.1597,-1.1582,-1.1581,-1.1581,-1.1594,-1.157,-1.157,-1.157,-1.157,-1.1629,-1.1631,0,0,0,0,0,0,-1.1649,-1.1645,-1.1643,-1.1642,-1.1632,-1.1619,-1.1616,-1.1617,-1.16,-1.1596,-1.1598,-1.1595,-1.1581,-1.158,-1.158,-1.1611,-1.157,-1.157,-1.1571,-1.1628,-1.163,-1.1631,0,0,0,0,0,0,-1.1649,-1.1649,-1.1644,-1.1643,-1.1641,-1.162,-1.1622,-1.1617,-1.1616,-1.1597,-1.1593,-1.1601,-1.158,-1.1579,-1.1592,-1.161,-1.1571,-1.1571,-1.1627,-1.1629,-1.163,-1.1674,0,0,0,0,0,0,-1.165,-1.165,-1.1659,-1.1643,-1.1641,-1.1656,-1.1623,-1.1618,-1.1617,-1.1613,-1.1599,-1.1596,-1.1579,-1.1592,-1.1593,-1.161,-1.1571,-1.1625,-1.1627,-1.163,-1.1671,-1.1677,-1.1682,0,0,0,0,0,-1.165,-1.1673,-1.166,-1.166,-1.1653,-1.1657,-1.1656,-1.1636,-1.1619,-1.1629,-1.1616,-1.1596,-1.1608,-1.1593,-1.1594,-1.1611,-1.1624,-1.1627,-1.163,-1.1668,-1.1676,-1.1682,0,0,0,0,0,0,-1.1692,-1.167,-1.1656,-1.1674,-1.1668,-1.165,-1.1662,-1.1645,-1.1643,-1.164,-1.1615,-1.1612,-1.1629,-1.1621,-1.1606,-1.1637,-1.1613,-1.1616,-1.1642,-1.1649,-1.1655,-1.1656,-1.1572,0,0,0,0,0,-1.1703,-1.1707,-1.1688,-1.1706,-1.1704,-1.1684,-1.1685,-1.167,-1.1662,-1.1659,-1.1648,-1.1642,-1.1644,-1.1646,-1.1647,-1.167,-1.1666,-1.1682,-1.1688,-1.1693,-1.1696,-1.1708,-1.1715,-1.1641,-1.1641,-1.1641,0,0,-1.1726,-1.1715,-1.1719,-1.1714,-1.1708,-1.1713,-1.1682,-1.1689,-1.1693,-1.1661,-1.1672,-1.1664,-1.1655,-1.1673,-1.1681,-1.1668,-1.1715,-1.1697,-1.1701,-1.1701,-1.1711,-1.1718,-1.1725,-1.1643,-1.1643,-1.1642,0,0,-1.1772,-1.1764,-1.1778,-1.1772,-1.1762,-1.1749,-1.1752,-1.1737,-1.173,-1.1742,-1.1717,-1.1722,-1.1726,-1.1722,-1.172,-1.1764,-1.1746,-1.1765,-1.1796,-1.1808,-1.1814,-1.1819,-1.1835,-1.1841,-1.1768,-1.1768,-1.1769,0,-1.1802,-1.181,-1.1787,-1.1796,-1.1795,-1.1766,-1.178,-1.1776,-1.1767,-1.1767,-1.1752,-1.1757,-1.175,-1.1766,-1.1777,-1.1777,-1.178,-1.1767,-1.1814,-1.1819,-1.1824,-1.1839,-1.1845,-1.1771,-1.1771,-1.177,-1.177,0,-1.1848,-1.1853,-1.1866,-1.1858,-1.1858,-1.187,-1.185,-1.1853,-1.1838,-1.1826,-1.1838,-1.1828,-1.1827,-1.183,-1.1815,-1.1844,-1.1837,-1.1819,-1.1793,-1.1833,-1.1847,-1.1853,-1.1774,-1.1774,-1.1773,-1.1772,0,0,-1.1919,-1.1899,-1.1904,-1.19,-1.1887,-1.1892,-1.1902,-1.1901,-1.1904,-1.1899,-1.1907,-1.1912,-1.1895,-1.1893,-1.1878,-1.1889,-1.1925,-1.1869,-1.1869,-1.188,-1.1957,-1.1971,-1.1978,-1.1913,-1.1914,-1.1915,-1.1958,0,-1.1962,-1.1978,-1.1959,-1.198,-1.1985,-1.1957,-1.1967,-1.196,-1.195,-1.1953,-1.1941,-1.1945,-1.1923,-1.1921,-1.193,-1.1919,-1.194,-1.1915,-1.1921,-1.1921,-1.1924,-1.1985,-1.1999,-1.2041,-1.1963,-1.1964,-1.1965,0,-1.2014,-1.2011,-1.2033,-1.2019,-1.202,-1.2029,-1.2026,-1.203,-1.2022,-1.2014,-1.2012,-1.1993,-1.2003,-1.1979,-1.1992,-1.1976,-1.1977,-1.1972,-1.1973,-1.1973,-1.1945,-1.1987,-1.2053,-1.206,-1.1973,-1.1972,-1.1972,0,-1.2064,-1.2066,-1.2079,-1.2077,-1.2061,-1.2068,-1.2062,-1.2053,-1.2053,-1.2051,-1.2051,-1.205,-1.205,-1.205,-1.2032,-1.2016,-1.2048,-1.2022,-1.2042,-1.2042,-1.205,-1.205,-1.2118,-1.2051,-1.2051,-1.205,-1.205,0,-1.2114,-1.2128,-1.2101,-1.211,-1.2125,-1.2103,-1.2119,-1.211,-1.2102,-1.2108,-1.2085,-1.2091,-1.2067,-1.2072,-1.2058,-1.2071,-1.2071,-1.2065,-1.2061,-1.2067,-1.2068,-1.2068,-1.2065,-1.2052,-1.2052,-1.2051,-1.2051,0,-1.2173,-1.2155,-1.2168,-1.2152,-1.2148,-1.216,-1.2147,-1.2154,-1.2142,-1.215,-1.2151,-1.2132,-1.2136,-1.2118,-1.2119,-1.211,-1.213,-1.2122,-1.2133,-1.213,-1.2151,-1.215,-1.2222,-1.223,-1.2158,-1.2158,-1.2159,0,-1.2206,-1.2216,-1.2201,-1.2204,-1.2199,-1.2203,-1.2203,-1.2182,-1.2183,-1.2175,-1.2184,-1.2185,-1.2185,-1.2193,-1.2179,-1.218,-1.2171,-1.2196,-1.2171,-1.2177,-1.2172,-1.2171,-1.2173,-1.2202,-1.2203,-1.2203,-1.2204,0,-1.2266,-1.2257,-1.2258,-1.2257,-1.2258,-1.2256,-1.2252,-1.2255,-1.2232,-1.2235,-1.2238,-1.2239,-1.2239,-1.2241,-1.2239,-1.2233,-1.2215,-1.2212,-1.2217,-1.2223,-1.2229,-1.2226,-1.2148,-1.221,-1.221,-1.2209,-1.2209,-1.2209,-1.2313,-1.2321,-1.2312,-1.2315,-1.2309,-1.2307,-1.2312,-1.2301,-1.2304,-1.2302,-1.229,-1.2295,-1.2288,-1.2283,-1.2279,-1.2284,-1.2272,-1.2278,-1.228,-1.2282,-1.2286,-1.2228,-1.2283,-1.2283,-1.2283,-1.2282,-1.2282,0,-1.2373,-1.2366,-1.2368,-1.2364,-1.2366,-1.2348,-1.2343,-1.2346,-1.2351,-1.2345,-1.2346,-1.235,-1.2352,-1.2339,-1.234,-1.2346,-1.2338,-1.2347,-1.2346,-1.2345,-1.2296,-1.2292,-1.2353,-1.2353,-1.2353,-1.2353,-1.2353,-1.2353,-1.2404,-1.2417,-1.2407,-1.2417,-1.241,-1.2415,-1.2414,-1.2411,-1.2407,-1.2412,-1.2414,-1.2405,-1.2397,-1.2396,-1.2398,-1.2394,-1.2395,-1.2407,-1.2401,-1.2355,-1.2349,-1.2342,-1.2338,-1.2408,-1.2408,-1.2449,-1.2449,-1.245]},{"header":{"parameterUnit":"m.s-1","parameterCategory":1,"la1":30.2991,"la2":30.254,"lo1":-89.0895,"lo2":-89.0444,"dy":0.0017,"dx":0.0017,"nx":28,"ny":28,"refTime":"2024-03-12T03:00:00:Z","depth":0,"parameterNumber":3,"parameterNumberName":"V-component_of_WINDS"},"data":[0,0,0,0,0,0,0,0,0,0,0,0,0,0,0,0,0,0,0,0,0,0,0,0,0,0,0,0,0,0,0,0,0,0,0,0,0,0,0,0,0,0,0,0,0,0,0,0,0,0,0,0,0,0,0,0,0,0,3.3232,3.3233,0,3.3342,3.3344,3.3345,3.3336,3.3334,3.3333,3.3331,3.3439,3.3443,3.3448,0,0,0,0,0,0,0,0,0,0,0,0,0,3.3006,3.301,3.3231,3.3233,3.3234,3.3342,3.3344,3.3345,3.3336,3.3334,3.3332,3.333,3.3438,3.3443,3.3448,0,0,0,0,0,0,0,0,0,0,0,0,0,3.3109,3.3012,3.3231,3.3243,3.3245,3.3342,3.3344,3.3346,3.3337,3.3334,3.3332,3.3329,3.3436,3.3442,3.3449,3.354,0,0,3.3469,3.3472,0,0,0,0,0,0,0,0,3.3103,3.3117,3.324,3.3242,3.3245,3.3323,3.3304,3.3411,3.3337,3.3302,3.3331,3.3328,3.3402,3.3411,3.3437,3.3545,3.3549,3.347,3.3474,3.3477,3.3478,0,0,0,0,0,0,0,3.3096,3.3112,3.3275,3.3242,3.3245,3.3241,3.3253,3.3324,3.3364,3.3305,3.3304,3.3318,3.3403,3.3431,3.344,3.3551,3.347,3.3475,3.348,3.3482,3.3736,3.3739,0,0,0,0,0,0,3.3087,3.3107,3.3272,3.3279,3.3167,3.3247,3.326,3.33,3.3364,3.3371,3.332,3.3317,3.3421,3.3432,3.3444,3.3553,3.3477,3.3483,3.3487,3.3734,3.3737,3.374,0,0,0,0,0,0,3.3082,3.3102,3.3267,3.3193,3.3213,3.3253,3.3299,3.3304,3.3332,3.3375,3.3382,3.3342,3.3419,3.3434,3.3516,3.3557,3.3486,3.3492,3.373,3.3735,3.3739,3.3773,0,0,0,0,0,0,3.3076,3.31,3.3137,3.3194,3.3217,3.334,3.3301,3.3308,3.3344,3.3341,3.3397,3.3404,3.3419,3.3506,3.3522,3.3564,3.3497,3.3727,3.3732,3.3737,3.3768,3.3778,3.3786,0,0,0,0,0,3.3068,3.3141,3.3139,3.3158,3.3264,3.3342,3.3355,3.3372,3.3347,3.3383,3.3411,3.3402,3.355,3.3514,3.3533,3.3577,3.3724,3.3731,3.3737,3.3764,3.3776,3.3786,0,0,0,0,0,0,3.3086,3.3149,3.3147,3.3241,3.3286,3.334,3.3386,3.3384,3.3436,3.3431,3.3448,3.3461,3.3543,3.3568,3.3528,3.3668,3.3633,3.3644,3.3648,3.3659,3.3668,3.3659,3.3502,0,0,0,0,0,3.3101,3.3161,3.3212,3.329,3.3313,3.3346,3.338,3.339,3.3437,3.3455,3.3489,3.3533,3.3589,3.3626,3.368,3.3772,3.3783,3.3812,3.3821,3.3828,3.3836,3.3885,3.3898,3.3761,3.376,3.376,0,0,3.3133,3.3174,3.3211,3.3295,3.3331,3.3391,3.3362,3.3426,3.347,3.3464,3.3544,3.357,3.362,3.3707,3.3747,3.3731,3.3876,3.3836,3.3841,3.3845,3.3892,3.3905,3.3917,3.3765,3.3764,3.3763,0,0,3.322,3.3259,3.3328,3.3365,3.3421,3.3442,3.3458,3.3513,3.3531,3.3611,3.3607,3.3659,3.3756,3.3792,3.3823,3.3924,3.3917,3.3941,3.3986,3.4033,3.4044,3.4054,3.4088,3.4101,3.3949,3.3949,3.3949,0,3.3252,3.3344,3.3363,3.3428,3.3464,3.3463,3.3532,3.3566,3.3636,3.366,3.3642,3.3763,3.3797,3.3892,3.3916,3.3942,3.396,3.3934,3.4041,3.4051,3.406,3.4093,3.4107,3.3951,3.3951,3.3951,3.3951,0,3.3379,3.3442,3.3491,3.356,3.3602,3.3668,3.3695,3.3735,3.374,3.3763,3.3843,3.3884,3.3946,3.397,3.3975,3.4065,3.4053,3.4038,3.4003,3.4076,3.4107,3.412,3.3955,3.3954,3.3953,3.3953,0,0,3.3481,3.356,3.3577,3.3608,3.367,3.3718,3.3784,3.3846,3.3879,3.3927,3.3981,3.4063,3.405,3.4085,3.4094,3.4136,3.4212,3.4116,3.4117,3.4131,3.4311,3.4321,3.4335,3.4208,3.4211,3.4213,3.4306,0,3.3573,3.3692,3.3711,3.3814,3.3871,3.3871,3.3928,3.3971,3.3994,3.4044,3.4069,3.4126,3.4105,3.4125,3.4167,3.4194,3.4248,3.4187,3.4256,3.4259,3.4243,3.4352,3.4363,3.445,3.4319,3.4321,3.4322,0,3.3698,3.3751,3.386,3.3913,3.3938,3.3989,3.4047,3.4097,3.4144,3.4158,3.4197,3.4201,3.4267,3.4231,3.4321,3.4279,3.4308,3.4326,3.4329,3.4335,3.4294,3.436,3.4478,3.449,3.4342,3.434,3.4339,0,3.3759,3.3858,3.3936,3.3962,3.4027,3.4062,3.409,3.4136,3.4172,3.4222,3.4245,3.4302,3.4332,3.4375,3.4393,3.4366,3.4482,3.4447,3.4493,3.4492,3.4516,3.4514,3.4639,3.4537,3.4537,3.4537,3.4537,0,3.386,3.3927,3.3964,3.4012,3.4086,3.4106,3.4178,3.4204,3.4245,3.4296,3.4299,3.4347,3.4369,3.442,3.4435,3.4506,3.452,3.4531,3.4534,3.453,3.4529,3.4549,3.4543,3.454,3.454,3.4539,3.4538,0,3.3941,3.3969,3.4054,3.4108,3.4123,3.4175,3.422,3.4265,3.4288,3.4353,3.4369,3.4404,3.4463,3.4487,3.4559,3.4569,3.4651,3.4649,3.4635,3.4635,3.4679,3.4674,3.482,3.484,3.4726,3.4727,3.4728,0,3.4003,3.4054,3.4114,3.415,3.418,3.4237,3.4274,3.4295,3.4333,3.4391,3.4429,3.4489,3.4538,3.4633,3.4663,3.4718,3.4717,3.4765,3.4725,3.4719,3.4716,3.4712,3.4717,3.4771,3.4772,3.4773,3.4774,0,3.411,3.4121,3.4175,3.4235,3.4279,3.4326,3.4372,3.44,3.4428,3.447,3.4532,3.457,3.4645,3.4703,3.476,3.4787,3.4784,3.4787,3.48,3.4796,3.4785,3.479,3.4653,3.4783,3.4782,3.4781,3.4781,3.478,3.4182,3.4227,3.4277,3.4337,3.4373,3.4416,3.4461,3.449,3.4542,3.4606,3.4615,3.468,3.4725,3.4802,3.4831,3.4881,3.4868,3.4888,3.4892,3.4897,3.4899,3.4778,3.4892,3.4891,3.4891,3.4891,3.4891,0,3.4288,3.432,3.4375,3.4439,3.4486,3.4482,3.4532,3.4571,3.4629,3.4672,3.4721,3.4791,3.4848,3.4883,3.494,3.4973,3.4974,3.4987,3.4984,3.499,3.4908,3.489,3.4986,3.4986,3.4986,3.4986,3.4986,3.4986,3.4348,3.4424,3.4441,3.4535,3.4565,3.4632,3.466,3.4699,3.4733,3.4812,3.486,3.4883,3.4923,3.4982,3.5034,3.5042,3.5062,3.5077,3.5084,3.5006,3.4996,3.4987,3.497,3.5081,3.5081,3.5162,3.5163,3.5163]}]]